{"data":{"norad_id":63383,"intl_designator":"2025-063W","name":"STARLINK-33748","alt_names":[],"object_type":"PAYLOAD","status":"ACTIVE","operator":null,"country":"US","launch_date":"2025-03-26","launch_site_code":"AFWTR","launch_vehicle":null,"mission":null,"orbit_class":"UNKNOWN","rcs_meters":null,"size_class":null,"mass_kg":null,"dimensions":null,"purposes":["comms"],"wikipedia_slug":null,"has_3d_model":false,"image_url":null,"decayed_at":null,"tle_current":{"epoch":"2026-09-20T15:12:51.380064Z","epoch_age_seconds":147297,"freshness":"FRESH","line1":"1 63383U 25063W   26263.63392801  .00029030  00000+0  86741-3 0  9992","line2":"2 63383  53.1529 234.9649 0001260  89.0680 271.0467 15.34385236 84499","mean_motion":15.34385236,"eccentricity":0.000126,"inclination_deg":53.1529,"raan_deg":234.9649,"arg_perigee_deg":89.068,"mean_anomaly_deg":271.0467,"bstar":0.00086741,"rev_number":8449,"period_min":93.848661093347,"perigee_km":461.88517087893,"apogee_km":463.60907367775,"semimajor_km":6840.8841222783,"source":"CELESTRAK","updated_at":"2026-09-21T09:00:34.976043Z"}}}